星链-36890(STARLINK-36890)

导读

STARLINK-36890(NORAD编号68258)是美国SpaceX公司星链(Starlink)星座中的一颗互联网通信卫星,属于SpaceX大规模低轨卫星组网计划的组成部分。 作为近地轨道卫星,它原本运行于约550公里高度的近地轨道,为全球提供高速卫星互联网接入服务,服务覆盖偏远地区与远洋通信等场景。 2026年SpaceX启动了包括该卫星在内的4400颗星链卫星降轨计划,将其轨道高度调整至480公里,旨在降低碰撞风险,减少太空碎片产生,提升近地轨道运行安全性,应对日益拥挤的太空环境。

Basic Information
目录编号:
68258
目录名称:
STARLINK-36890
国际标识:
2026-054AC
轨道中心:
EARTH
卫星名称:
星链-36890
卫星全名:
星链-36890(STARLINK-36890)
卫星状态:
在轨 (已飞行171 天)
发射日期:
2026-03-17 UTC
国别 :
美国 (US)
星等 :
--
Orbit Information
数据来源 国际轨道数据
星历时间: 2026-09-03T14:52:25+0800
21小时前
查看轨道信息
半长轴: 6840.805km
偏心率: 0.0001333
轨道倾角: 53.158°
近地点辐角 92.985°
升交点赤经 190.487°
平近点角 267.130°
近地点: 461.756km
远地点: 463.58km
周期: 93.847分钟
每日圈数: 15.34412
Detailed Information
固有亮度:
5
最大亮度:
2.5
卫星平台:
Starlink V1.0
覆盖范围:
全球
运营商:
太空探索技术公司
运营商所在国:
美国
制造商(研发单位):
太空探索技术公司
制造商所在国:
美国
使用方式:
暂无
Satellite Introduction
Starlink 计划是 SpaceX 推出的全球卫星互联网项目,通过发射低轨道卫星,为全球尤其是偏远地区提供高速、低延迟的互联网服务。自 2019 年起,Starlink 已部署数千颗卫星,旨在缩小全球数字鸿沟,推动互联网普及。该项目还为军事、航空等行业提供通信支持,带来广泛经济效益。
2D Orbit Map
3D Orbit Map
Orbit Altitude Analysis Chart
Orbit Inclination Analysis Chart
Orbit Comprehensive Analysis Chart
View Comprehensive Chart
Conjunction Data List
Event ID Objects TCA Miss Dist (km) Collision Risk Probability Collision Risk Index (CRI) Action
CDM_260905-062706-417806-825821
2026-09-05T
06:27:48+0000
0.740 km
远距离
6.263239E-5 中风险 0.71
CDM_260905-080106-417806-825821
2026-09-05T
08:01:36+0000
1.690 km
极远距离
3.990042E-6 低风险 0.47
CDM_260904-054004-976606-825821
2026-09-04T
05:40:26+0000
2.803 km
极远距离
1.263326E-6 低风险 0.37